Terminal Aerodrome Forecast
Issued by NWS

Home | Current Version | Previous Version | Text Only | Print | Product List | Glossary On
Versions: 1 2 3 4 5 6 7 8 9 10 11 12 13 14 15 16
000
FTUS46 KMTR 231100
TAFSJC
TAF
KSJC 231137Z 2312/2412 18003KT P6SM SCT021
     FM231600 VRB03KT P6SM FEW020
     FM232100 32015KT P6SM FEW015
     FM240400 30009KT P6SM SKC
     FM240800 31003KT P6SM SKC=

USA.gov is the U.S. government's official web portal to all federal, state and local government web resources and services.